This is the latest recevied weather packets stored in our database for station/object OE6JUE. If no packets are shown the sender has not sent any weather packets the latest 10 day(s).
| Time | Temp. | Humidity | Pressure | Rain* | Wind** | Luminosity | Snow |
|---|---|---|---|---|---|---|---|
| 1788449782 | 31.11° C | 30% | 1020.2 hPa | 0 mm | - | - | - |
| 1788449481 | 31.67° C | 30% | 1020.3 hPa | 0 mm | - | - | - |
| 1788449182 | 31.67° C | 30% | 1020.3 hPa | 0 mm | - | - | - |
| 1788448881 | 31.67° C | 31% | 1020.3 hPa | 0 mm | - | - | - |
| 1788448582 | 31.67° C | 32% | 1020.3 hPa | 0 mm | - | - | - |
| 1788448282 | 31.67° C | 32% | 1020.3 hPa | 0 mm | - | - | - |
| 1788447982 | 31.67° C | 30% | 1020.2 hPa | 0 mm | - | - | - |
| 1788447681 | 31.67° C | 31% | 1020.3 hPa | 0 mm | - | - | - |
| 1788447381 | 31.67° C | 31% | 1020.3 hPa | 0 mm | - | - | - |
| 1788447081 | 30.56° C | 31% | 1020.3 hPa | 0 mm | - | - | - |
| 1788446782 | 30.56° C | 31% | 1020.3 hPa | 0 mm | - | - | - |
| 1788446481 | 30.56° C | 31% | 1020.3 hPa | 0 mm | - | - | - |
| 1788446182 | 30.56° C | 31% | 1020.4 hPa | 0 mm | - | - | - |
| 1788445882 | 30.56° C | 32% | 1020.4 hPa | 0 mm | - | - | - |
| 1788445582 | 30.56° C | 31% | 1020.4 hPa | 0 mm | - | - | - |
| 1788445282 | 30.56° C | 32% | 1020.5 hPa | 0 mm | - | - | - |
| 1788444981 | 30.56° C | 32% | 1020.4 hPa | 0 mm | - | - | - |
| 1788444681 | 30.56° C | 33% | 1020.6 hPa | 0 mm | - | - | - |
| 1788444381 | 30.56° C | 32% | 1020.6 hPa | 0 mm | - | - | - |
| 1788444092 | 31.11° C | 31% | 1020.6 hPa | 0 mm | - | - | - |
| 1788443782 | 31.67° C | 31% | 1020.5 hPa | 0 mm | - | - | - |
| 1788443482 | 31.11° C | 31% | 1020.6 hPa | 0 mm | - | - | - |
| 1788443182 | 30.56° C | 31% | 1020.7 hPa | 0 mm | - | - | - |
| 1788442881 | 30° C | 33% | 1020.9 hPa | 0 mm | - | - | - |
| 1788442582 | 29.44° C | 33% | 1020.9 hPa | 0 mm | - | - | - |
* Rain latest hour (hover to see other rain measurements)
** Current wind speed in m/s (hover to see current wind gust speed)